Date,TemperatureHighF,TemperatureAvgF,TemperatureLowF,DewpointHighF,DewpointAvgF,DewpointLowF,HumidityHigh,HumidityAvg,HumidityLow,PressureMaxIn,PressureMinIn,WindSpeedMaxMPH,WindSpeedAvgMPH,GustSpeedMaxMPH,PrecipitationSumIn
2013-1-1,17,5,-9,5,-7,-20,62,59,48,28.94,28.73,10,5,11,0.00
2013-1-2,31,18,-1,26,10,-10,87,70,62,28.79,28.64,15,7,18,0.00
2013-1-3,29,16,8,24,7,-2,84,69,48,29.00,28.79,18,9,18,0.00
2013-1-4,32,19,12,15,10,5,89,68,45,28.88,28.76,17,8,19,0.00
2013-1-5,29,20,8,16,12,3,86,69,52,28.76,28.58,28,11,33,0.00
2013-1-6,30,17,9,14,8,2,86,68,46,28.94,28.76,18,9,20,0.00
2013-1-7,38,26,11,23,17,7,90,70,53,28.76,28.61,29,9,32,0.00
2013-1-8,39,27,10,28,20,6,98,78,58,28.73,28.47,22,8,23,0.00
2013-1-9,49,34,23,30,26,19,94,73,41,29.06,28.73,16,8,19,0.00
2013-1-10,38,33,25,34,27,19,98,80,52,29.00,28.38,18,9,22,0.08
2013-1-11,44,37,30,44,36,26,98,98,84,28.41,28.11,30,9,32,0.00
2013-1-12,30,17,8,26,5,-5,87,57,45,28.76,28.26,33,17,36,0.00
2013-1-13,20,10,3,2,-5,-9,56,51,38,28.94,28.73,20,9,21,0.00
2013-1-14,30,14,4,10,0,-11,77,54,41,29.09,28.94,10,4,13,0.00
2013-1-15,35,21,10,13,8,3,73,60,40,28.97,28.64,18,8,22,0.00
2013-1-16,48,32,19,31,21,6,87,66,48,28.88,28.50,22,11,24,0.00
2013-1-17,41,24,10,23,10,-3,91,57,34,29.09,28.88,13,4,13,0.00
2013-1-18,50,37,26,29,26,23,92,67,40,28.91,28.50,25,12,26,0.00
2013-1-19,51,35,11,30,20,-4,86,56,38,28.94,28.47,36,12,36,0.00
2013-1-20,15,8,-1,0,-7,-15,53,50,49,29.06,28.94,22,7,24,0.00
2013-1-21,5,-2,-9,-10,-16,-23,49,49,49,29.06,28.97,23,12,24,0.00
2013-1-22,19,9,-3,2,-8,-18,56,47,38,29.03,28.88,14,4,15,0.00
2013-1-23,27,14,-2,10,0,-18,66,52,44,29.17,28.79,20,8,20,0.00
2013-1-24,17,7,-3,-2,-10,-19,45,43,38,29.20,28.82,22,11,24,0.00
2013-1-25,35,20,7,17,4,-8,61,49,43,28.94,28.70,26,9,29,0.00
2013-1-26,32,18,4,10,0,-11,51,45,36,28.94,28.73,24,10,25,0.00
2013-1-27,33,32,27,32,27,10,98,84,44,28.73,28.44,20,8,24,0.04
2013-1-28,38,34,32,38,34,32,98,98,98,28.58,28.26,12,4,14,0.00
2013-1-29,36,32,25,35,30,22,98,91,81,28.38,28.23,16,6,20,0.00
2013-1-30,25,19,8,22,10,-2,90,66,48,28.52,28.29,24,14,29,0.00
2013-1-31,8,2,-6,-3,-8,-16,61,61,61,28.97,28.52,32,16,35,0.00
2013-2-1,23,7,-9,16,-3,-19,75,62,52,29.00,28.64,28,10,28,0.00
2013-2-2,33,20,8,29,11,-1,98,66,42,28.85,28.61,29,8,31,0.00
2013-2-3,38,24,12,22,13,3,84,63,42,28.82,28.44,23,10,26,0.00
2013-2-4,30,22,14,21,12,6,85,67,43,28.70,28.44,13,4,15,0.00
2013-2-5,47,31,20,28,22,16,91,72,38,28.76,28.41,21,8,24,0.00
2013-2-6,43,32,17,32,26,13,92,77,56,28.76,28.55,33,10,33,0.00
2013-2-7,36,29,26,32,24,18,96,82,71,28.88,28.58,13,6,20,0.00
2013-2-8,31,26,23,22,18,16,90,74,56,29.00,28.85,23,8,26,0.00
2013-2-9,40,31,25,31,26,21,94,82,57,28.85,28.47,29,16,30,0.00
2013-2-10,41,34,28,40,32,23,98,94,74,28.47,27.93,35,17,40,0.21
2013-2-11,29,26,24,22,17,13,78,67,58,28.79,28.26,40,21,40,0.00
2013-2-12,44,30,17,25,19,12,88,65,39,28.79,28.52,18,7,21,0.00
2013-2-13,51,36,24,30,25,20,91,67,37,28.55,28.35,18,8,20,0.00
2013-2-14,40,32,16,30,22,3,81,67,49,28.88,28.38,29,12,32,0.00
2013-2-15,32,18,3,10,3,-6,65,52,40,28.97,28.88,12,6,14,0.00
2013-2-16,64,24,0,30,6,-9,80,52,23,28.94,28.70,11,4,11,0.00
2013-2-17,59,40,0,34,23,0,89,54,28,28.70,28.29,27,17,32,0.00
2013-2-18,39,26,9,38,17,2,98,72,44,28.61,28.26,30,13,35,0.00
2013-2-19,32,12,0,16,-4,-20,76,50,33,29.03,28.61,33,15,35,0.00
2013-2-20,33,13,-4,6,-8,-24,57,38,31,29.06,28.91,15,6,18,0.00
2013-2-21,28,19,12,16,8,3,85,63,40,28.97,28.55,25,14,27,0.00
2013-2-22,34,21,7,16,11,0,92,67,41,28.61,28.50,18,8,21,0.00
2013-2-23,42,17,-1,17,5,-6,82,61,36,28.61,28.52,10,4,10,0.00
2013-2-24,57,21,2,24,9,-8,81,61,28,28.73,28.58,8,2,9,0.04
2013-2-25,35,27,24,25,22,18,98,83,53,28.76,28.64,10,4,11,0.00
2013-2-26,36,28,23,26,21,18,98,78,50,28.61,28.47,15,6,15,0.00
2013-2-27,35,27,20,21,18,15,83,68,52,28.70,28.50,20,11,20,0.00
2013-2-28,34,26,18,20,17,14,89,71,51,28.85,28.70,12,7,15,0.00
2013-3-1,34,25,20,19,14,8,84,64,41,29.00,28.82,12,4,12,0.00
2013-3-2,40,23,6,19,10,-3,74,58,38,28.97,28.79,9,4,11,0.00
2013-3-3,39,29,18,24,18,13,83,65,43,28.79,28.52,23,13,25,0.00
2013-3-4,34,30,26,30,26,23,98,87,78,28.64,28.44,22,10,26,0.00
2013-3-5,33,27,22,30,19,14,98,71,58,28.97,28.61,21,12,26,0.00
2013-3-6,32,24,20,17,15,12,81,69,47,29.06,28.97,11,5,13,0.00
2013-3-7,40,26,11,23,18,7,88,72,49,28.97,28.85,20,10,21,0.00
2013-3-8,49,34,22,33,26,19,94,75,49,28.91,28.67,23,10,23,0.08
2013-3-9,42,38,34,41,38,34,98,98,95,28.67,28.32,26,12,30,0.54
2013-3-10,34,30,25,34,28,22,98,92,80,28.52,28.41,19,9,23,0.00
2013-3-11,33,26,17,22,16,9,89,68,44,28.61,28.47,20,12,22,0.00
2013-3-12,34,25,17,24,15,8,89,66,44,28.91,28.58,32,14,36,0.00
2013-3-13,50,24,10,20,10,2,89,59,29,29.09,28.91,10,6,12,0.04
2013-3-14,56,36,23,33,23,15,98,63,34,28.91,28.70,18,6,19,0.00
2013-3-15,49,37,30,34,32,29,98,84,51,28.73,28.44,13,6,15,0.00
2013-3-16,34,30,22,34,21,10,98,73,46,28.88,28.52,13,7,18,0.00
2013-3-17,38,28,16,28,16,6,86,59,43,28.88,28.50,18,12,21,0.00
2013-3-18,33,26,16,33,15,3,98,67,46,28.67,28.38,35,19,38,0.00
2013-3-19,36,22,10,17,6,-4,71,50,33,28.94,28.64,22,10,23,0.00
2013-3-20,31,20,10,10,4,-1,63,50,39,29.00,28.79,25,11,25,0.00
2013-3-21,40,23,6,15,6,-7,67,48,33,28.79,28.64,13,5,13,0.00
2013-3-22,47,29,17,19,12,7,73,52,31,28.73,28.67,9,5,11,0.00
2013-3-23,39,30,23,21,17,14,83,61,42,28.82,28.70,13,4,17,0.00
2013-3-24,33,28,24,26,20,13,91,73,57,28.73,28.61,15,9,16,0.00
2013-3-25,39,30,24,25,18,13,90,63,41,28.94,28.67,17,10,20,0.00
2013-3-26,46,29,19,22,15,9,79,56,35,29.00,28.91,14,6,15,0.00
2013-3-27,50,37,22,28,23,18,91,61,37,28.97,28.91,13,6,17,0.00
2013-3-28,56,41,28,35,28,22,89,63,37,28.97,28.88,15,6,17,0.00
2013-3-29,61,43,30,38,31,27,95,68,35,28.91,28.73,20,7,24,0.00
2013-3-30,64,49,39,48,37,29,98,67,35,28.73,28.55,21,6,22,0.04
2013-3-31,47,38,26,35,25,11,98,64,40,28.79,28.58,22,10,26,0.00
2013-4-1,38,27,21,15,10,6,60,50,35,28.97,28.79,17,7,18,0.00
2013-4-2,50,34,19,27,18,11,82,55,30,29.00,28.94,10,2,13,0.00
2013-4-3,53,37,25,27,22,18,87,58,36,29.03,28.85,24,10,28,0.00
2013-4-4,61,43,31,32,25,22,73,51,26,28.85,28.73,15,7,16,0.00
2013-4-5,60,42,30,29,24,21,80,53,26,28.85,28.47,27,10,29,0.00
2013-4-6,62,51,40,42,35,29,78,55,40,28.50,28.26,23,11,26,0.00
2013-4-7,59,44,28,45,34,26,98,72,39,28.61,28.38,22,7,27,0.00
2013-4-8,78,59,44,50,45,38,98,65,26,28.55,28.32,24,7,25,0.04
2013-4-9,50,41,37,44,39,35,98,94,81,28.76,28.44,30,17,33,2.28
2013-4-10,37,35,34,36,33,29,98,93,83,28.64,28.44,32,13,36,0.28
2013-4-11,38,35,33,36,33,30,98,91,72,28.44,28.26,13,5,13,0.46
2013-4-12,37,33,32,33,26,20,98,75,55,28.61,28.32,24,12,27,0.00
2013-4-13,50,38,28,33,25,19,81,60,38,28.64,28.50,20,9,24,0.04
2013-4-14,61,46,38,51,38,29,98,75,49,28.50,28.05,34,17,36,0.75
2013-4-15,46,38,33,31,22,17,74,54,41,28.76,28.32,29,12,29,0.00
2013-4-16,54,42,32,27,25,21,80,53,33,28.91,28.73,18,8,18,0.00
2013-4-17,42,39,36,38,34,26,98,86,54,28.88,28.41,35,12,36,1.08
2013-4-18,36,34,32,36,31,26,98,91,78,28.50,28.29,30,12,33,0.79
2013-4-19,40,33,26,26,19,14,83,57,43,28.73,28.38,31,18,36,0.00
2013-4-20,48,37,23,22,18,14,72,48,31,28.94,28.73,18,6,20,0.00
2013-4-21,67,49,38,47,35,21,85,60,29,28.91,28.70,32,11,34,0.16
2013-4-22,46,39,32,42,36,27,98,92,81,28.82,28.64,17,7,34,0.96
2013-4-23,43,33,27,28,20,14,83,60,40,28.85,28.79,17,9,19,0.00
2013-4-24,56,39,26,36,23,18,81,55,27,28.82,28.64,32,12,37,0.00
2013-4-25,64,48,29,29,25,19,88,46,24,28.91,28.70,30,10,31,0.00
2013-4-26,78,60,44,43,34,27,67,40,20,28.85,28.70,24,11,27,0.00
2013-4-27,73,56,38,46,40,35,98,60,27,28.85,28.61,15,7,23,0.00
2013-4-28,83,64,44,45,39,33,96,48,19,28.64,28.38,23,11,28,0.00
2013-4-29,83,67,52,50,44,36,80,46,22,28.50,28.23,17,6,24,0.00
2013-4-30,80,67,52,56,43,32,75,45,22,28.61,28.20,30,10,33,0.04
2013-5-1,52,40,33,43,34,29,97,80,63,29.03,28.61,15,6,17,0.21
2013-5-2,56,41,33,34,25,20,98,57,33,29.17,29.03,14,5,17,0.70
2013-5-3,46,36,32,34,26,21,95,68,40,29.03,28.73,17,6,17,0.04
2013-5-4,44,38,33,41,36,30,98,93,85,28.82,28.67,11,5,17,0.08
2013-5-5,50,43,41,46,42,40,98,96,81,28.85,28.76,11,4,12,0.00
2013-5-6,74,58,42,48,44,40,98,64,33,28.82,28.73,10,4,13,0.00
2013-5-7,77,63,44,49,43,38,97,54,25,28.76,28.64,15,5,22,0.00
2013-5-8,75,61,54,58,49,42,98,67,33,28.70,28.61,20,5,24,0.46
2013-5-9,71,58,50,60,52,43,98,84,57,28.70,28.58,13,4,20,0.37
2013-5-10,72,56,41,44,36,28,86,51,25,28.76,28.64,14,5,18,0.00
2013-5-11,58,51,39,40,23,12,59,34,20,28.88,28.64,28,11,29,0.00
2013-5-12,66,50,31,25,18,13,52,30,15,28.94,28.79,16,5,22,0.00
2013-5-13,82,62,39,38,30,16,49,32,20,28.82,28.50,34,10,34,0.00
2013-5-14,104,77,58,50,40,20,65,32,9,28.50,28.32,30,10,33,0.00
2013-5-15,88,70,56,39,34,21,42,28,17,28.67,28.47,15,5,20,0.00
2013-5-16,89,71,53,63,43,34,93,42,18,28.61,28.50,24,8,29,0.21
2013-5-17,84,72,62,63,56,49,97,62,31,28.61,28.52,20,8,20,0.00
2013-5-18,87,73,59,59,53,48,92,54,29,28.64,28.44,23,9,27,0.00
2013-5-19,77,68,62,62,58,54,91,73,46,28.50,28.26,33,10,43,0.75
2013-5-20,74,65,58,59,54,44,98,71,36,28.35,28.23,27,12,27,0.08
2013-5-21,65,59,56,56,47,40,95,66,42,28.38,28.26,21,10,25,0.00
2013-5-22,58,54,51,54,50,45,95,86,67,28.64,28.35,18,7,18,0.08
2013-5-23,72,60,47,49,38,29,94,50,24,28.97,28.61,18,6,21,0.00
2013-5-24,76,60,44,48,37,31,69,44,24,29.00,28.82,28,12,33,0.00
2013-5-25,60,55,50,52,48,38,98,78,46,28.88,28.73,33,15,36,0.67
2013-5-26,62,54,50,59,52,48,98,92,74,28.82,28.52,35,14,40,1.16
2013-5-27,68,60,54,58,55,51,98,85,54,28.73,28.41,28,8,93,1.37
2013-5-28,79,69,59,64,58,51,98,71,40,28.47,28.38,13,5,14,0.12
2013-5-29,74,68,63,65,61,52,98,78,48,28.47,28.32,28,12,40,0.71
2013-5-30,71,67,63,64,58,48,96,73,56,28.38,28.23,28,16,34,0.25
2013-5-31,77,68,58,52,45,38,75,45,30,28.35,28.29,26,12,29,0.00
2013-6-1,68,60,54,58,49,41,84,67,49,28.67,28.32,19,8,23,0.20
2013-6-2,70,59,50,47,39,32,77,51,27,28.79,28.67,10,3,12,0.00
2013-6-3,73,63,49,45,40,37,74,45,28,28.76,28.58,21,8,28,0.00
2013-6-4,62,59,57,60,53,44,98,80,53,28.73,28.64,25,9,29,0.17
2013-6-5,71,63,57,61,49,38,98,65,34,28.73,28.64,16,5,19,0.00
2013-6-6,75,63,53,53,45,38,84,54,33,28.70,28.61,10,3,13,0.00
2013-6-7,74,60,48,54,43,36,94,57,29,28.73,28.61,10,2,13,0.00
2013-6-8,67,60,52,58,50,42,91,71,44,28.61,28.41,24,9,26,0.79
2013-6-9,71,64,59,60,57,52,93,80,57,28.50,28.38,24,10,28,0.08
2013-6-10,81,67,58,63,57,51,98,73,39,28.61,28.50,10,3,13,0.00
2013-6-11,91,78,65,64,58,52,83,53,28,28.58,28.47,20,8,23,0.00
2013-6-12,91,75,64,68,60,45,91,63,36,28.67,28.41,26,9,32,0.25
2013-6-13,86,72,58,50,44,38,69,40,21,28.79,28.67,10,4,13,0.00
2013-6-14,79,70,64,65,52,45,92,55,34,28.76,28.50,33,15,48,0.79
2013-6-15,83,72,63,65,58,53,86,64,42,28.67,28.52,22,6,39,0.16
2013-6-16,91,76,62,65,50,36,95,48,17,28.70,28.61,10,2,13,0.00
2013-6-17,88,75,60,53,46,37,70,39,19,28.70,28.61,21,5,23,0.00
2013-6-18,89,75,62,51,47,39,69,40,22,28.73,28.67,10,3,14,0.00
2013-6-19,89,76,62,56,50,43,73,42,21,28.73,28.64,23,10,26,0.00
2013-6-20,92,80,68,58,54,52,68,43,27,28.70,28.58,32,16,32,0.00
2013-6-21,92,80,69,66,60,53,68,51,30,28.67,28.52,34,15,40,0.00
2013-6-22,91,77,70,65,56,48,84,51,26,28.58,28.52,24,5,31,0.37
2013-6-23,83,75,66,64,58,49,83,58,39,28.61,28.44,23,9,25,0.30
2013-6-24,79,71,66,69,62,50,93,74,44,28.64,28.44,23,6,30,0.87
2013-6-25,89,77,68,70,64,55,95,68,32,28.52,28.41,20,7,24,0.00
2013-6-26,92,80,70,74,61,45,96,58,21,28.58,28.38,19,5,25,0.00
2013-6-27,88,75,64,61,53,43,83,49,22,28.67,28.58,20,6,24,0.00
2013-6-28,86,77,65,54,45,40,56,35,21,28.64,28.52,33,8,33,0.00
2013-6-29,82,71,59,55,46,41,67,42,30,28.64,28.52,18,6,22,0.00
2013-6-30,82,68,56,51,42,32,77,43,21,28.82,28.64,18,4,20,0.00
2013-7-1,88,73,54,50,42,37,73,37,19,28.88,28.82,18,4,18,0.00
2013-7-2,89,73,58,51,44,38,71,39,20,28.85,28.73,16,3,23,0.00
2013-7-3,92,74,56,54,46,40,73,42,19,28.79,28.64,15,3,19,0.16
2013-7-4,90,83,71,50,44,40,42,26,19,28.70,28.61,24,11,27,0.00
2013-7-5,92,80,65,53,50,46,60,36,24,28.64,28.55,26,13,28,0.00
2013-7-6,94,80,68,56,52,48,60,39,23,28.61,28.52,26,13,29,0.00
2013-7-7,95,82,69,62,56,52,71,44,27,28.61,28.55,13,5,17,0.00
2013-7-8,100,83,68,67,61,55,85,51,25,28.67,28.58,10,3,13,0.00
2013-7-9,96,82,73,70,62,55,86,55,28,28.67,28.58,13,4,14,0.04
2013-7-10,88,75,59,63,49,39,80,46,21,28.79,28.67,10,3,15,0.00
2013-7-11,89,74,57,51,46,40,72,42,21,28.82,28.70,16,6,21,0.00
2013-7-12,91,78,64,52,49,46,62,38,24,28.73,28.64,29,13,29,0.00
2013-7-13,85,75,68,58,52,48,66,45,34,28.73,28.67,23,12,28,0.17
2013-7-14,90,77,68,56,52,47,64,44,25,28.88,28.73,17,9,23,0.00
2013-7-15,92,77,63,62,56,51,80,52,28,28.94,28.82,17,4,17,0.00
2013-7-16,96,84,70,67,59,54,87,47,26,28.94,28.88,10,4,13,0.00
2013-7-17,99,84,68,68,59,53,86,48,23,29.00,28.85,13,3,15,0.00
2013-7-18,95,83,69,67,59,53,87,49,27,28.88,28.61,19,6,27,0.00
2013-7-19,96,82,62,61,52,43,63,39,20,28.64,28.55,13,4,16,0.00
2013-7-20,94,75,55,58,50,46,85,48,23,28.70,28.58,8,1,9,0.00
2013-7-21,94,75,64,64,56,50,80,55,27,28.64,28.50,17,3,20,0.00
2013-7-22,96,79,64,68,59,50,95,55,27,28.58,28.44,16,5,23,0.00
2013-7-23,84,70,57,54,47,39,75,47,26,28.73,28.55,12,3,14,0.00
2013-7-24,87,72,52,54,47,44,85,47,24,28.79,28.70,11,2,12,0.00
2013-7-25,90,73,58,62,53,48,83,54,28,28.73,28.61,15,4,18,0.04
2013-7-26,76,67,54,63,50,38,96,58,32,28.79,28.64,19,5,23,0.00
2013-7-27,74,60,47,48,39,31,86,50,25,28.79,28.70,13,3,15,0.00
2013-7-28,80,65,45,44,38,35,81,42,23,28.76,28.70,13,4,18,0.00
2013-7-29,52,52,52,39,38,37,61,58,56,28.76,28.76,2,1,4,0.00
2013-7-30,75,70,65,61,58,54,87,65,51,28.79,28.73,5,1,6,0.00
2013-7-31,65,61,59,60,59,57,95,91,86,28.79,28.76,4,2,6,0.00
2013-8-1,93,79,62,61,51,46,74,42,21,28.76,28.61,12,4,17,0.00
2013-8-2,82,68,61,68,54,44,91,65,30,28.73,28.61,9,1,9,0.08
2013-8-3,85,69,52,58,47,42,91,53,24,28.91,28.73,7,1,10,0.00
2013-8-4,85,70,50,55,47,43,88,49,25,28.91,28.70,15,4,15,0.00
2013-8-5,88,74,65,69,58,48,89,61,31,28.70,28.50,13,5,20,0.00
2013-8-6,93,75,60,68,59,52,95,63,27,28.61,28.50,15,3,17,0.00
2013-8-7,86,70,59,64,53,44,87,59,29,28.73,28.52,8,2,12,0.00
2013-8-8,60,58,57,52,50,49,78,74,72,28.73,28.70,4,1,5,0.00
2013-8-11,81,72,68,65,62,55,85,71,41,28.73,28.67,9,2,10,0.00
2013-8-12,89,73,57,68,54,42,92,57,25,28.79,28.73,11,2,11,0.00
2013-8-13,84,67,53,56,45,38,87,52,23,28.88,28.76,11,2,12,0.00
2013-8-14,84,64,46,57,42,37,85,51,22,28.91,28.79,11,2,13,0.00
2013-8-15,76,64,50,53,46,42,80,55,33,28.85,28.79,16,4,23,0.00
2013-8-16,84,66,51,52,44,40,82,51,24,28.88,28.82,14,3,14,0.00
2013-8-17,86,68,49,55,43,38,83,46,23,28.91,28.82,15,4,16,0.00
2013-8-18,86,69,50,59,46,41,85,48,23,28.85,28.76,17,4,17,0.00
2013-8-19,88,73,58,57,54,50,82,54,31,28.76,28.64,18,6,23,0.00
2013-8-20,93,78,68,63,58,55,76,53,31,28.67,28.58,17,7,18,0.00
2013-8-21,92,80,70,67,60,54,80,53,31,28.70,28.61,16,5,20,0.00
2013-8-22,95,78,68,67,60,52,85,58,28,28.79,28.67,20,4,26,0.08
2013-8-23,91,77,63,69,61,57,95,62,35,28.82,28.70,17,6,18,0.00
2013-8-24,89,76,71,70,63,56,86,66,36,28.82,28.70,20,8,23,0.25
2013-8-25,95,82,71,67,62,57,80,53,29,28.82,28.73,24,8,24,0.00
2013-8-26,98,84,73,66,61,57,77,49,28,28.76,28.64,16,7,19,0.00
2013-8-27,100,86,73,63,59,55,69,43,25,28.64,28.58,12,3,13,0.00
2013-8-28,101,84,70,65,58,50,80,46,20,28.70,28.61,9,3,12,0.00
2013-8-29,98,81,65,66,57,50,85,49,21,28.73,28.61,15,3,20,0.00
2013-8-30,99,81,68,68,62,56,89,56,29,28.61,28.55,10,2,13,0.00
2013-8-31,97,78,61,68,57,50,92,56,22,28.58,28.50,6,1,6,0.00
2013-9-1,85,72,58,66,53,46,94,55,28,28.70,28.47,23,4,33,0.67
2013-9-2,81,65,51,54,45,39,87,55,24,28.79,28.70,10,2,11,0.00
2013-9-3,89,66,45,53,46,40,91,55,21,28.82,28.70,7,1,9,0.00
2013-9-4,95,75,60,59,52,44,86,51,19,28.85,28.73,8,2,10,0.00
2013-9-5,91,77,66,57,54,48,71,47,28,28.88,28.79,10,3,13,0.00
2013-9-6,93,76,62,60,55,50,83,53,27,28.82,28.61,17,5,21,0.00
2013-9-7,90,76,67,68,61,54,87,60,32,28.64,28.58,9,3,11,0.00
2013-9-8,81,74,69,68,63,57,92,72,45,28.67,28.55,12,4,15,0.00
2013-9-9,101,82,66,69,55,44,96,49,17,28.55,28.44,20,6,23,0.00
2013-9-10,96,78,65,58,52,48,71,44,22,28.73,28.55,11,2,19,0.00
2013-9-11,92,75,63,64,52,42,85,51,20,28.79,28.70,6,0,6,0.00
2013-9-12,84,70,53,53,40,31,69,37,19,28.94,28.79,8,1,13,0.00
2013-9-13,79,62,42,49,36,28,81,43,21,28.94,28.79,6,0,8,0.00
2013-9-14,79,62,44,44,37,33,80,44,22,28.79,28.55,23,6,25,0.00
2013-9-15,71,64,53,53,44,39,74,48,35,28.94,28.52,14,5,14,0.00
2013-9-16,78,57,45,53,42,36,93,63,26,29.06,28.91,13,4,15,0.00
2013-9-17,64,58,52,64,55,31,98,89,66,28.94,28.61,15,8,20,0.20
2013-9-18,91,77,64,65,59,51,98,60,28,28.64,28.41,21,10,25,0.00
2013-9-19,85,74,60,62,54,40,67,50,31,28.61,28.41,17,8,18,0.25
2013-9-20,71,57,43,44,38,31,81,51,30,28.70,28.61,16,8,20,0.00
2013-9-21,80,58,37,43,35,27,88,50,20,28.73,28.58,11,3,11,0.00
2013-9-22,81,56,47,46,41,37,82,60,27,28.61,28.55,16,5,18,0.00
2013-9-23,80,62,51,46,42,37,75,51,22,28.61,28.50,25,10,27,0.00
2013-9-24,77,62,51,48,43,39,73,51,31,28.61,28.52,10,4,13,0.00
2013-9-25,82,61,44,54,43,38,88,58,23,28.64,28.52,15,5,23,0.00
2013-9-26,87,72,58,58,50,43,93,52,22,28.58,28.50,29,12,30,0.00
2013-9-27,90,75,67,54,49,44,63,42,21,28.61,28.50,31,14,34,0.00
2013-9-28,71,61,45,62,44,30,89,57,30,28.73,28.41,27,10,27,0.16
2013-9-29,80,59,41,40,34,27,80,47,17,28.73,28.55,23,6,25,0.00
2013-9-30,84,66,50,43,38,34,73,41,20,28.58,28.38,24,10,30,0.00
2013-10-1,86,68,48,45,33,20,61,31,13,28.67,28.44,10,4,23,0.00
2013-10-2,87,69,46,53,37,24,60,34,20,28.70,28.52,20,8,23,0.00
2013-10-3,82,67,60,62,52,44,88,63,30,28.55,28.47,10,3,13,0.08
2013-10-4,78,66,59,68,57,45,98,77,42,28.61,28.38,23,8,40,0.58
2013-10-5,63,51,40,45,28,22,61,43,28,28.58,28.44,19,8,19,0.00
2013-10-6,51,46,41,46,38,26,85,74,50,28.61,28.44,18,6,23,0.04
2013-10-7,78,57,42,37,32,25,71,43,21,28.70,28.61,13,6,17,0.00
2013-10-8,81,62,46,36,33,29,66,37,17,28.70,28.58,28,10,33,0.00
2013-10-9,80,62,48,43,37,31,78,43,20,28.73,28.64,22,9,26,0.00
2013-10-10,83,65,48,42,37,31,70,40,20,28.73,28.52,25,10,31,0.00
2013-10-11,75,64,53,52,44,32,66,49,34,28.55,28.35,33,15,39,0.00
2013-10-12,68,54,40,34,26,14,63,36,17,28.91,28.52,22,8,26,0.00
2013-10-13,72,53,32,31,21,15,60,31,16,29.12,28.91,9,4,12,0.00
2013-10-14,63,51,40,47,28,18,86,43,24,29.03,28.47,28,11,34,0.75
2013-10-15,55,49,45,53,40,33,92,71,57,28.61,28.41,26,12,31,0.04
2013-10-16,59,45,34,40,29,16,84,57,27,28.70,28.61,16,6,18,0.00
2013-10-17,66,44,31,30,26,21,79,52,23,28.67,28.52,12,4,18,0.00
2013-10-18,56,44,34,30,22,14,73,45,25,28.76,28.61,13,6,17,0.00
2013-10-19,58,42,32,32,26,20,84,58,27,28.61,28.47,20,8,24,0.00
2013-10-20,64,52,36,31,27,21,66,39,27,28.64,28.38,28,13,31,0.00
2013-10-21,53,40,29,27,18,10,70,43,26,28.73,28.61,20,6,26,0.00
2013-10-22,46,38,34,31,23,15,89,57,37,28.76,28.58,14,5,16,0.12
2013-10-23,39,35,30,31,24,16,85,64,47,28.82,28.73,11,4,12,0.05
2013-10-24,51,38,29,26,20,15,75,50,29,29.03,28.82,17,6,18,0.00
2013-10-25,59,42,23,25,20,13,75,45,26,29.03,28.64,29,9,29,0.00
2013-10-26,55,42,27,27,19,12,59,41,26,28.85,28.61,15,7,20,0.00
2013-10-27,68,45,24,28,21,11,73,41,22,28.79,28.50,23,7,25,0.00
2013-10-28,52,41,35,26,23,21,61,48,35,28.97,28.67,23,11,25,0.00
2013-10-29,58,46,37,38,30,21,64,52,36,28.97,28.67,14,8,16,0.00
2013-10-30,67,53,45,57,47,38,98,83,44,28.67,28.41,31,9,35,0.08
2013-10-31,52,42,37,41,32,27,89,68,41,28.41,28.17,20,8,21,0.00
2013-11-1,59,47,38,31,28,24,72,50,30,28.58,28.20,24,11,28,0.00
2013-11-2,58,44,35,33,25,14,75,48,27,28.79,28.58,15,7,19,0.00
2013-11-3,59,46,34,26,22,20,65,42,25,28.76,28.47,40,20,46,0.00
2013-11-4,57,45,29,35,26,15,66,47,29,28.85,28.50,25,10,26,0.00
2013-11-5,39,34,25,35,28,15,89,78,53,28.85,28.55,22,6,28,1.16
2013-11-6,46,36,28,30,21,15,87,59,31,28.88,28.61,15,7,20,0.00
2013-11-7,47,35,28,28,19,12,89,56,28,28.97,28.88,20,8,21,0.00
2013-11-8,59,41,22,28,20,10,69,44,27,28.91,28.38,35,12,42,0.00
2013-11-9,57,42,0,28,21,0,55,41,29,28.97,28.47,26,12,29,0.00
2013-11-10,51,36,20,26,17,10,79,48,30,29.09,28.79,15,6,15,0.00
2013-11-11,38,26,11,24,10,-4,66,50,43,29.35,28.76,15,7,18,0.00
2013-11-12,37,18,3,8,-1,-11,50,43,30,29.47,29.14,11,6,12,0.00
2013-11-13,55,37,18,21,12,2,47,37,26,29.15,28.64,28,12,31,0.00
2013-11-14,58,40,28,27,20,13,71,46,30,28.64,28.52,11,6,14,0.00
2013-11-15,64,41,24,33,24,16,79,54,28,28.58,28.32,17,7,21,0.00
2013-11-16,67,49,38,46,34,19,89,60,28,28.32,27.96,28,12,30,0.00
2013-11-17,53,41,33,40,27,16,85,58,38,28.61,28.05,22,7,26,0.17
2013-11-18,50,36,26,27,20,11,77,54,31,28.91,28.61,18,8,20,0.00
2013-11-19,59,43,27,27,21,17,80,46,25,28.88,28.58,33,18,37,0.00
2013-11-20,53,43,29,28,22,17,77,44,31,28.67,28.52,29,15,33,0.00
2013-11-21,33,27,19,30,15,6,90,63,43,29.17,28.67,17,8,20,0.00
2013-11-22,36,18,7,9,1,-6,63,47,30,29.29,29.14,15,7,16,0.00
2013-11-23,23,10,-2,3,-11,-23,52,38,33,29.47,29.23,13,4,15,0.00
2013-11-24,32,17,-1,6,-5,-23,48,37,31,29.35,28.82,24,12,29,0.00
2013-11-25,47,31,22,19,11,5,57,44,30,28.82,28.70,21,10,27,0.00
2013-11-26,31,24,12,15,2,-8,64,40,28,29.03,28.79,21,9,24,0.00
2013-11-27,34,19,3,6,-2,-14,53,40,30,29.03,28.67,20,8,26,0.00
2013-11-28,37,21,6,9,1,-10,60,43,30,29.12,28.67,14,5,17,0.00
2013-11-29,38,23,5,16,5,-11,60,45,34,29.14,28.79,26,10,26,0.00
2013-11-30,57,35,20,23,16,6,73,47,26,28.82,28.70,13,5,14,0.00
2013-12-1,41,30,20,20,14,6,69,51,37,28.82,28.55,8,3,9,0.00
2013-12-2,54,36,26,27,22,16,77,58,34,28.55,28.23,20,8,22,0.00
2013-12-3,48,34,25,30,25,14,89,71,40,28.38,28.26,17,4,21,0.00
2013-12-4,34,26,11,34,19,-3,97,78,51,28.61,28.26,29,12,33,0.00
2013-12-5,16,8,1,-1,-9,-18,51,44,38,29.03,28.58,28,14,32,0.00
2013-12-6,13,1,-5,-8,-18,-24,38,38,38,29.29,29.03,14,8,20,0.00
2013-12-7,20,4,-10,-4,-17,-28,38,36,31,29.35,29.12,9,4,12,0.00
2013-12-8,20,12,2,3,-7,-14,54,42,34,29.12,28.67,13,6,16,0.00
2013-12-9,11,2,-7,-2,-11,-19,54,54,54,28.88,28.61,20,12,23,0.00
2013-12-10,20,15,8,9,0,-7,69,51,37,28.88,28.55,29,11,39,0.00
2013-12-11,18,2,-13,9,-9,-23,69,60,59,29.23,28.88,18,7,20,0.00
2013-12-12,39,16,4,12,0,-8,59,50,31,29.03,28.73,20,7,20,0.00
2013-12-13,24,16,7,9,3,-6,63,55,49,28.79,28.61,19,8,20,0.00
2013-12-14,18,13,6,4,-1,-6,57,54,44,28.85,28.79,16,7,20,0.00
2013-12-15,14,10,6,0,-3,-7,55,55,55,28.79,28.67,10,5,12,0.00
2013-12-16,32,22,10,18,9,-3,81,57,41,28.76,28.61,13,7,16,0.00
2013-12-17,34,25,8,20,10,-4,83,55,37,28.85,28.70,27,11,28,0.00
2013-12-18,51,30,10,25,13,-3,72,50,35,28.76,28.38,21,7,23,0.00
2013-12-19,33,24,18,21,11,7,69,58,49,28.58,28.44,20,8,23,0.00
2013-12-20,19,17,14,10,7,3,72,63,57,28.61,28.52,10,5,13,0.00
2013-12-21,22,18,10,11,6,0,65,61,45,28.58,28.50,10,4,12,0.00
2013-12-22,19,13,1,8,-2,-15,63,51,43,28.97,28.52,18,10,22,0.00
2013-12-23,8,-1,-10,-9,-17,-26,45,45,45,29.14,28.97,20,11,25,0.00
2013-12-24,18,12,4,8,-4,-13,64,47,45,28.97,28.79,26,15,31,0.00
2013-12-25,34,26,18,20,14,7,79,60,44,28.85,28.79,24,10,26,0.00
2013-12-26,50,37,21,20,15,11,64,42,29,28.85,28.73,11,6,12,0.00
2013-12-27,58,32,16,23,15,5,74,52,26,28.88,28.67,23,7,28,0.00
2013-12-28,59,35,13,24,17,0,74,50,24,28.70,28.38,28,10,31,0.00
2013-12-29,12,2,-10,-1,-10,-22,56,56,56,28.97,28.70,26,11,29,0.00
2013-12-30,17,5,-8,1,-8,-20,56,53,47,28.91,28.70,15,7,20,0.00
2013-12-31,10,5,-4,-5,-9,-18,51,51,51,28.91,28.82,15,7,18,0.00
2014-1-1,6,1,-1,-8,-13,-15,51,51,51,29.03,28.85,16,7,19,0.00
2014-1-2,9,-5,-17,-6,-18,-30,51,51,51,29.12,29.00,7,3,9,0.00